Location: Rounton
(54.4000°N, 1.3500°W)
Time: 15:51:46
(UTC+01:00)

S-56A Canister/Altair - Pass Details

Date: 09 September 2024
Orbit: 636 x 2487 km, 38.9° (Epoch: 02 October)

Event Time Altitude Azimuth Distance (km) Brightness Sun altitude
Rises 02:24:46 0° 266° (W) 4,880 - -28.0°
Reaches altitude 10° 02:28:20 10° 255° (WSW) 4,159 - -27.8°
Maximum altitude 02:37:19 27° 204° (SSW) 3,507 - -27.2°
Exits shadow 02:46:28 14° 160° (SSE) 4,736 11.2 -26.6°
Drops below altitude 10° 02:48:12 10° 155° (SSE) 5,082 11.4 -26.5°
Sets 02:53:12 0° 145° (SE) 6,151 11.9 -26.1°
